Date String (YYYY-MM-DD hh:mm:ss) UTC,Instrument flags,Ambient pressure (hPa),Sample flow (lpm),Bypass flow (lpm),Sample temperature (°C),Ambient temperature (°C),ASC tube jacket temperature (°C),LED temperature (°C),Box temperature (°C),Sample RH (%),Span deviation,Mass concentration (μg/m³),Mass concentration (μg/m³),Mass concentration (μg/m³)
DateTimeUTC,F1_M11,P_M11,Q1_M11,Q2_M11,T1_M11,T2_M11,T3_M11,T4_M11,T5_M11,U1_M11,ZSPAN_M11,X0_M11,X2_M11,X1_M11
2022-12-04 05:00:00,,0829.1,5.00,0.00,23.0,21.6,00.0,31.9,24.9,11.7,0000.0,0019.75,0006.16,0004.86
2022-12-04 05:01:00,,0829.1,5.01,0.00,23.0,21.6,00.0,31.9,24.9,11.7,0000.0,0018.89,0006.05,0004.84
2022-12-04 05:02:00,,0829.2,5.00,0.00,23.0,21.6,00.0,31.9,24.9,11.7,0000.0,0018.23,0006.04,0004.80
2022-12-04 05:03:00,,0829.3,4.99,0.00,23.0,21.6,00.0,31.9,24.8,11.7,0000.0,0018.59,0006.11,0004.78
2022-12-04 05:04:00,,0829.2,4.99,0.00,23.0,21.5,00.0,31.9,24.7,11.7,0000.0,0018.07,0006.15,0004.77
2022-12-04 05:05:00,,0829.3,5.02,0.00,22.9,21.5,00.0,31.9,24.7,11.7,0000.0,0017.03,0006.16,0004.77
2022-12-04 05:06:00,,0829.3,5.00,0.00,22.9,21.5,00.0,31.9,24.6,11.7,0000.0,0016.30,0006.12,0004.78
2022-12-04 05:07:00,,0829.4,4.99,0.00,22.9,21.4,00.0,31.9,24.6,11.8,0000.0,0015.48,0006.13,0004.80
2022-12-04 05:08:00,,0829.3,4.99,0.00,22.9,21.4,00.0,31.9,24.6,11.9,0000.0,0016.32,0006.17,0004.79
2022-12-04 05:09:00,,0829.2,5.00,0.00,22.9,21.4,00.0,31.9,24.6,12.1,0000.0,0016.08,0006.14,0004.79
2022-12-04 05:10:00,,0829.2,5.00,0.00,22.9,21.4,00.0,31.9,24.6,12.1,0000.0,0015.51,0006.09,0004.78
2022-12-04 05:11:00,,0829.2,5.00,0.00,22.9,21.4,00.0,31.9,24.6,12.1,0000.0,0015.91,0006.13,0004.79
2022-12-04 05:12:00,,0829.2,5.00,0.00,22.9,21.4,00.0,31.9,24.7,12.0,0000.0,0015.59,0006.14,0004.78
2022-12-04 05:13:00,,0829.3,5.00,0.00,22.9,21.4,00.0,31.9,24.7,12.0,0000.0,0015.91,0006.08,0004.74
2022-12-04 05:14:00,,0829.2,5.00,0.00,22.8,21.3,00.0,31.8,24.6,12.1,0000.0,0015.04,0005.95,0004.71
2022-12-04 05:15:00,,0829.2,5.00,0.00,22.8,21.2,00.0,31.8,24.6,12.2,0000.0,0014.35,0005.87,0004.69
2022-12-04 05:16:00,,0829.2,5.00,0.00,22.8,21.2,00.0,31.8,24.6,12.2,0000.0,0014.12,0005.76,0004.63
2022-12-04 05:17:00,,0829.3,5.00,0.00,22.8,21.2,00.0,31.8,24.5,12.2,0000.0,0014.03,0005.72,0004.54
2022-12-04 05:18:00,,0829.3,5.00,0.00,22.8,21.3,00.0,31.8,24.5,12.2,0000.0,0013.36,0005.58,0004.46
2022-12-04 05:19:00,,0829.3,5.00,0.00,22.8,21.3,00.0,31.8,24.4,12.2,0000.0,0012.99,0005.46,0004.39
2022-12-04 05:20:00,,0829.2,5.00,0.00,22.8,21.3,00.0,31.8,24.4,12.3,0000.0,0012.76,0005.36,0004.32
2022-12-04 05:21:00,,0829.3,5.00,0.00,22.7,21.2,00.0,31.8,24.4,12.8,0000.0,0013.17,0005.32,0004.27
2022-12-04 05:22:00,,0829.2,5.00,0.00,22.7,21.2,00.0,31.7,24.3,13.0,0000.0,0013.20,0005.27,0004.22
2022-12-04 05:23:00,,0829.1,5.00,0.00,22.7,21.1,00.0,31.7,24.3,12.9,0000.0,0013.63,0005.23,0004.17
2022-12-04 05:24:00,,0828.9,5.00,0.00,22.7,21.2,00.0,31.7,24.4,12.9,0000.0,0013.35,0005.25,0004.15
2022-12-04 05:25:00,,0828.9,5.01,0.00,22.7,21.2,00.0,31.7,24.4,12.8,0000.0,0013.38,0005.18,0004.09
2022-12-04 05:26:00,,0828.9,5.00,0.00,22.7,21.2,00.0,31.7,24.4,12.9,0000.0,0014.24,0005.06,0003.99
2022-12-04 05:27:00,,0829.0,5.00,0.00,22.7,21.2,00.0,31.7,24.3,12.9,0000.0,0014.39,0005.03,0003.93
2022-12-04 05:28:00,,0829.1,5.00,0.00,22.7,21.2,00.0,31.7,24.3,12.9,0000.0,0014.20,0004.96,0003.89
2022-12-04 05:29:00,,0829.1,4.99,0.00,22.6,21.1,00.0,31.7,24.4,12.7,0000.0,0013.88,0004.95,0003.90
2022-12-04 05:30:00,,0829.0,4.99,0.00,22.6,20.9,00.0,31.7,24.3,12.9,0000.0,0013.85,0004.94,0003.88
2022-12-04 05:31:00,,0828.9,5.00,0.00,22.6,20.9,00.0,31.6,24.3,13.0,0000.0,0013.62,0004.92,0003.85
2022-12-04 05:32:00,,0829.0,5.00,0.00,22.5,20.9,00.0,31.6,24.3,13.1,0000.0,0013.16,0004.91,0003.81
2022-12-04 05:33:00,,0829.0,5.00,0.00,22.5,21.0,00.0,31.6,24.3,13.1,0000.0,0012.68,0004.84,0003.78
2022-12-04 05:34:00,,0829.0,5.01,0.00,22.6,21.0,00.0,31.6,24.3,13.1,0000.0,0011.74,0004.77,0003.77
2022-12-04 05:35:00,,0828.9,5.01,0.00,22.6,21.1,00.0,31.6,24.3,13.1,0000.0,0011.75,0004.73,0003.79
2022-12-04 05:36:00,,0829.0,5.00,0.00,22.6,21.1,00.0,31.6,24.3,13.0,0000.0,0011.80,0004.72,0003.79
2022-12-04 05:37:00,,0829.2,5.00,0.00,22.6,21.2,00.0,31.6,24.4,12.9,0000.0,0011.24,0004.73,0003.80
2022-12-04 05:38:00,,0829.3,4.99,0.00,22.6,21.1,00.0,31.6,24.3,13.0,0000.0,0011.02,0004.72,0003.81
2022-12-04 05:39:00,,0829.2,4.99,0.00,22.5,20.8,00.0,31.5,24.2,12.8,0000.0,0011.41,0004.77,0003.86
2022-12-04 05:40:00,,0829.2,5.01,0.00,22.4,20.6,00.0,31.5,24.1,13.0,0000.0,0011.21,0004.76,0003.85
2022-12-04 05:41:00,,0829.3,5.01,0.00,22.4,20.6,00.0,31.5,24.2,13.1,0000.0,0011.26,0004.75,0003.82
2022-12-04 05:42:00,,0829.2,5.01,0.00,22.4,20.7,00.0,31.5,24.2,13.2,0000.0,0011.79,0004.75,0003.81
2022-12-04 05:43:00,,0829.2,4.99,0.00,22.4,20.8,00.0,31.5,24.2,13.1,0000.0,0012.30,0004.74,0003.82
2022-12-04 05:44:00,,0829.3,4.99,0.00,22.4,20.9,00.0,31.5,24.2,13.0,0000.0,0013.26,0004.83,0003.90
2022-12-04 05:45:00,,0829.3,5.01,0.00,22.4,20.9,00.0,31.4,24.1,12.7,0000.0,0014.18,0004.99,0004.01
2022-12-04 05:46:00,,0829.2,5.01,0.00,22.4,21.0,00.0,31.4,24.2,12.6,0000.0,0014.89,0005.14,0004.10
2022-12-04 05:47:00,,0829.2,5.01,0.00,22.4,21.0,00.0,31.4,24.2,12.6,0000.0,0015.38,0005.27,0004.21
2022-12-04 05:48:00,,0829.3,5.00,0.00,22.4,21.0,00.0,31.4,24.3,12.5,0000.0,0016.43,0005.38,0004.32
2022-12-04 05:49:00,,0829.2,4.99,0.00,22.4,20.9,00.0,31.4,24.3,12.2,0000.0,0017.09,0005.54,0004.45
2022-12-04 05:50:00,,0829.3,5.00,0.00,22.4,20.9,00.0,31.4,24.3,12.1,0000.0,0017.31,0005.65,0004.54
2022-12-04 05:51:00,,0829.3,4.99,0.00,22.4,20.9,00.0,31.4,24.3,12.2,0000.0,0018.27,0005.76,0004.62
2022-12-04 05:52:00,,0829.2,5.00,0.00,22.4,20.9,00.0,31.4,24.2,12.4,0000.0,0018.44,0005.89,0004.73
2022-12-04 05:53:00,,0829.4,5.01,0.00,22.4,21.0,00.0,31.4,24.1,12.4,0000.0,0018.15,0006.04,0004.84
2022-12-04 05:54:00,,0829.3,5.01,0.00,22.4,21.0,00.0,31.4,24.1,12.4,0000.0,0018.22,0006.17,0004.95
2022-12-04 05:55:00,,0829.2,5.00,0.00,22.4,21.0,00.0,31.4,24.2,12.3,0000.0,0018.52,0006.27,0004.99
2022-12-04 05:56:00,,0829.3,4.99,0.00,22.4,21.0,00.0,31.4,24.2,12.3,0000.0,0019.26,0006.29,0005.00
2022-12-04 05:57:00,,0829.2,5.00,0.00,22.4,21.1,00.0,31.4,24.2,12.3,0000.0,0018.75,0006.31,0005.00
2022-12-04 05:58:00,,0829.2,5.01,0.00,22.4,21.1,00.0,31.4,24.2,12.2,0000.0,0018.75,0006.33,0005.02
2022-12-04 05:59:00,,0829.3,5.01,0.00,22.4,21.1,00.0,31.4,24.3,12.0,0000.0,0018.09,0006.44,0005.06
